[[{"header":{"parameterUnit":"m.s-1","parameterCategory":1,"la1":30.2991,"la2":30.254,"lo1":-89.0895,"lo2":-89.0444,"dy":0.0017,"dx":0.0017,"nx":28,"ny":28,"refTime":"2025-08-13T09:00:00:Z","depth":0,"parameterNumber":2,"parameterNumberName":"U-component_of_WINDS"},"data":[0,0,0,0,0,0,0,0,0,0,0,0,0,0,0,0,0,0,0,0,0,0,0,0,0,0,0,0,0,0,0,0,0,0,0,0,0,0,0,0,0,0,0,0,0,0,0,0,0,0,0,0,0,0,0,0,0,0,1.1202,1.1204,0,1.135,1.1352,1.1353,1.1392,1.1391,1.139,1.1389,1.154,1.1544,1.1549,0,0,0,0,0,0,0,0,0,0,0,0,0,1.095,1.0954,1.1202,1.1204,1.1206,1.135,1.1352,1.1354,1.1392,1.1391,1.139,1.1389,1.1538,1.1544,1.155,0,0,0,0,0,0,0,0,0,0,0,0,0,1.1075,1.0956,1.1202,1.1242,1.1247,1.1349,1.1352,1.1354,1.1392,1.1391,1.139,1.1388,1.1536,1.1543,1.155,1.1622,0,0,1.1573,1.1576,0,0,0,0,0,0,0,0,1.1067,1.1084,1.1234,1.1239,1.1245,1.1351,1.1318,1.1444,1.1393,1.1337,1.1389,1.1388,1.1478,1.149,1.1521,1.1629,1.1636,1.1573,1.1578,1.1581,1.1583,0,0,0,0,0,0,0,1.1059,1.1078,1.126,1.1236,1.1243,1.1252,1.1268,1.1342,1.1413,1.1342,1.1345,1.1362,1.1481,1.1513,1.1524,1.1638,1.1573,1.1579,1.1584,1.1587,1.1812,1.1814,0,0,0,0,0,0,1.1043,1.107,1.1256,1.1265,1.1151,1.1258,1.1276,1.1319,1.1413,1.1426,1.1363,1.1363,1.1502,1.1516,1.153,1.162,1.1581,1.1587,1.1592,1.181,1.1812,1.1814,0,0,0,0,0,0,1.1038,1.106,1.125,1.1169,1.1193,1.1263,1.1311,1.1322,1.1355,1.1429,1.1441,1.1384,1.1501,1.152,1.1599,1.1625,1.1591,1.1597,1.1808,1.1811,1.1813,1.18,0,0,0,0,0,0,1.103,1.1057,1.1086,1.1169,1.1198,1.1317,1.1313,1.1326,1.1368,1.1369,1.1451,1.1464,1.1502,1.1588,1.1606,1.1635,1.1603,1.1806,1.181,1.1812,1.1798,1.1802,1.1804,0,0,0,0,0,1.1021,1.1076,1.1087,1.111,1.1235,1.1318,1.1335,1.1378,1.137,1.1399,1.1446,1.1461,1.1619,1.1596,1.1616,1.1648,1.1805,1.1809,1.1812,1.1797,1.1801,1.1804,0,0,0,0,0,0,1.0995,1.1088,1.1101,1.1185,1.1243,1.1325,1.1363,1.1381,1.1442,1.1441,1.1492,1.151,1.1585,1.1625,1.1596,1.1722,1.1712,1.172,1.1693,1.1698,1.1701,1.169,1.1609,0,0,0,0,0,1.0999,1.1059,1.1137,1.1203,1.1232,1.1292,1.133,1.1358,1.1421,1.1445,1.1498,1.1558,1.1621,1.1662,1.1724,1.1804,1.1822,1.1836,1.1839,1.1841,1.1847,1.1891,1.1898,1.1826,1.1826,1.1826,0,0,1.1007,1.1066,1.1101,1.12,1.1248,1.1309,1.1313,1.1377,1.1423,1.1455,1.1533,1.1574,1.1643,1.1723,1.1761,1.1758,1.1871,1.1845,1.1847,1.1852,1.1896,1.1902,1.1908,1.1829,1.1828,1.1828,0,0,1.1054,1.1105,1.1165,1.1213,1.1287,1.1327,1.1341,1.142,1.1448,1.1527,1.1552,1.1606,1.1714,1.1763,1.1801,1.1865,1.1881,1.1884,1.1899,1.1942,1.1947,1.1953,1.1974,1.1982,1.189,1.189,1.189,0,1.1055,1.1148,1.1193,1.1257,1.1299,1.1331,1.1392,1.1436,1.1526,1.1554,1.155,1.1685,1.1735,1.1825,1.1841,1.1871,1.1888,1.1875,1.1943,1.1949,1.1954,1.1976,1.1984,1.1889,1.1889,1.1889,1.1889,0,1.1146,1.121,1.125,1.1336,1.1382,1.1444,1.1497,1.1539,1.1562,1.1602,1.1681,1.1741,1.1816,1.1839,1.1863,1.1933,1.1929,1.1933,1.1925,1.196,1.1981,1.199,1.1889,1.1889,1.1889,1.1889,0,0,1.118,1.129,1.1304,1.1343,1.1426,1.1476,1.1538,1.1611,1.1645,1.1706,1.1759,1.1849,1.1853,1.1897,1.1926,1.1963,1.2008,1.1963,1.1965,1.1969,1.2088,1.2084,1.2093,1.2019,1.2021,1.2023,1.2082,0,1.1237,1.135,1.1392,1.1485,1.1544,1.1575,1.1629,1.1685,1.1723,1.1778,1.182,1.1883,1.1884,1.1911,1.1949,1.1995,1.2033,1.1991,1.2068,1.2071,1.205,1.2104,1.21,1.2154,1.2091,1.2092,1.2093,0,1.1318,1.1379,1.1478,1.1553,1.1579,1.1627,1.1697,1.175,1.1813,1.1839,1.1887,1.1913,1.1979,1.1966,1.2056,1.2026,1.206,1.2087,1.2091,1.2099,1.2084,1.2113,1.2172,1.2179,1.2107,1.2105,1.2105,0,1.1332,1.1439,1.1512,1.1545,1.1634,1.1667,1.1706,1.1768,1.1809,1.187,1.1896,1.1964,1.2,1.2051,1.2095,1.2082,1.218,1.2172,1.2202,1.2201,1.2222,1.222,1.2286,1.2244,1.2244,1.2244,1.2244,0,1.139,1.1449,1.152,1.1564,1.1631,1.1678,1.1742,1.1782,1.1837,1.189,1.192,1.1969,1.2023,1.2078,1.2113,1.2181,1.2198,1.2219,1.2228,1.2217,1.2214,1.2239,1.2236,1.2246,1.2246,1.2245,1.2245,0,1.1417,1.1467,1.1548,1.1626,1.1647,1.1692,1.1758,1.1802,1.1842,1.1907,1.1925,1.1987,1.2053,1.2101,1.2187,1.221,1.2283,1.2292,1.2262,1.2266,1.2293,1.229,1.2378,1.2391,1.2341,1.2341,1.2342,0,1.1451,1.1497,1.158,1.1617,1.1656,1.1716,1.1757,1.1805,1.1847,1.1923,1.1957,1.2025,1.2083,1.2187,1.2238,1.2304,1.2314,1.234,1.2324,1.2311,1.2313,1.231,1.2314,1.2342,1.2342,1.2343,1.2343,0,1.1505,1.1527,1.1587,1.1655,1.1704,1.1759,1.1815,1.1844,1.1901,1.1947,1.2015,1.2059,1.2146,1.2213,1.2283,1.2322,1.2342,1.2348,1.2358,1.2347,1.2327,1.2337,1.2267,1.2345,1.2345,1.2345,1.2345,1.2345,1.1536,1.1578,1.1643,1.1707,1.1755,1.1806,1.1851,1.1896,1.1954,1.2028,1.2053,1.2123,1.2185,1.2281,1.232,1.2375,1.2375,1.239,1.2394,1.2397,1.2395,1.2318,1.2388,1.2388,1.2388,1.2388,1.2388,0,1.1591,1.1634,1.1693,1.1771,1.1821,1.1836,1.1898,1.1939,1.2001,1.2057,1.2113,1.219,1.2255,1.2312,1.2379,1.2412,1.2423,1.2428,1.2426,1.2434,1.2393,1.2377,1.2418,1.2418,1.2418,1.2418,1.2418,1.2418,1.1625,1.1697,1.1727,1.1821,1.1864,1.1933,1.1968,1.2015,1.206,1.2145,1.2199,1.2236,1.2292,1.2363,1.2423,1.2438,1.2461,1.2464,1.2481,1.2441,1.2437,1.2434,1.2419,1.2469,1.2469,1.2518,1.2518,1.2519]},{"header":{"parameterUnit":"m.s-1","parameterCategory":1,"la1":30.2991,"la2":30.254,"lo1":-89.0895,"lo2":-89.0444,"dy":0.0017,"dx":0.0017,"nx":28,"ny":28,"refTime":"2025-08-13T09:00:00:Z","depth":0,"parameterNumber":3,"parameterNumberName":"V-component_of_WINDS"},"data":[0,0,0,0,0,0,0,0,0,0,0,0,0,0,0,0,0,0,0,0,0,0,0,0,0,0,0,0,0,0,0,0,0,0,0,0,0,0,0,0,0,0,0,0,0,0,0,0,0,0,0,0,0,0,0,0,0,0,6.3046,6.3046,0,6.3032,6.3032,6.3032,6.2932,6.293,6.2927,6.2925,6.2911,6.2913,6.2915,0,0,0,0,0,0,0,0,0,0,0,0,0,6.2987,6.2989,6.3046,6.3046,6.3046,6.3032,6.3032,6.3032,6.2932,6.2929,6.2926,6.2924,6.291,6.2912,6.2915,0,0,0,0,0,0,0,0,0,0,0,0,0,6.2997,6.2989,6.3046,6.2995,6.299,6.3032,6.3032,6.3032,6.2933,6.2929,6.2926,6.2922,6.2909,6.2912,6.2915,6.3006,0,0,6.2924,6.2925,0,0,0,0,0,0,0,0,6.2997,6.2999,6.3002,6.2998,6.2993,6.298,6.3006,6.3023,6.2934,6.2955,6.2925,6.292,6.2937,6.2937,6.2943,6.3005,6.3005,6.2924,6.2926,6.2927,6.2928,0,0,0,0,0,0,0,6.2996,6.2999,6.3041,6.3003,6.2997,6.2972,6.297,6.3009,6.2966,6.2953,6.2945,6.2945,6.2934,6.294,6.2942,6.3004,6.2924,6.2926,6.2928,6.2929,6.314,6.3144,0,0,0,0,0,0,6.3003,6.3,6.3041,6.304,6.2986,6.2976,6.2973,6.2988,6.2966,6.2959,6.2948,6.294,6.2937,6.2938,6.2941,6.3045,6.2927,6.293,6.2931,6.3136,6.3141,6.3145,0,0,0,0,0,0,6.3002,6.3007,6.3042,6.3018,6.302,6.2981,6.2998,6.299,6.2996,6.2962,6.2954,6.2963,6.2934,6.2937,6.299,6.3043,6.2931,6.2933,6.3132,6.3138,6.3143,6.3255,0,0,0,0,0,0,6.3001,6.3008,6.3042,6.3019,6.3022,6.3092,6.3002,6.2992,6.3001,6.2991,6.2974,6.2967,6.2931,6.2987,6.2993,6.3045,6.2936,6.3127,6.3134,6.3141,6.3246,6.3264,6.3279,0,0,0,0,0,6.2999,6.3074,6.3044,6.305,6.3064,6.3095,6.3096,6.3053,6.3006,6.304,6.3018,6.2968,6.3037,6.2993,6.2999,6.3053,6.3123,6.3132,6.3141,6.3239,6.326,6.3278,0,0,0,0,0,0,6.3104,6.307,6.3036,6.3107,6.3104,6.3078,6.3119,6.3078,6.3089,6.3079,6.3025,6.3022,6.3084,6.3074,6.3026,6.3139,6.3071,6.3082,6.3143,6.3163,6.3179,6.318,6.2938,0,0,0,0,0,6.3135,6.3163,6.3132,6.3197,6.3198,6.3159,6.3171,6.3138,6.3134,6.3132,6.3114,6.3112,6.3133,6.3148,6.3165,6.3244,6.3239,6.3284,6.3301,6.3314,6.3324,6.3364,6.3384,6.3174,6.3174,6.3174,0,0,6.32,6.3185,6.3206,6.3218,6.3212,6.3242,6.3159,6.3194,6.3216,6.3137,6.3187,6.3174,6.3168,6.3235,6.3263,6.3228,6.3381,6.3325,6.3336,6.3338,6.3375,6.3395,6.3413,6.318,6.3179,6.3178,0,0,6.3333,6.3325,6.3378,6.3374,6.3366,6.334,6.3353,6.3333,6.3321,6.337,6.3312,6.3337,6.3374,6.3372,6.3376,6.3509,6.3463,6.3516,6.36,6.3641,6.3657,6.3672,6.3718,6.3736,6.3526,6.3526,6.3526,0,6.3414,6.3457,6.341,6.3449,6.3456,6.3386,6.3439,6.3438,6.3437,6.3443,6.3404,6.3449,6.344,6.3505,6.3537,6.3543,6.3556,6.3517,6.3659,6.3673,6.3685,6.3729,6.3747,6.3532,6.3532,6.3531,6.353,0,6.3557,6.3588,6.3632,6.3632,6.3644,6.369,6.3649,6.3667,6.3633,6.3612,6.3662,6.3649,6.3662,6.3675,6.3643,6.3736,6.3714,6.3668,6.3598,6.3713,6.3753,6.3769,6.3542,6.3539,6.3537,6.3536,0,0,6.3755,6.3729,6.3746,6.3745,6.3732,6.3754,6.3797,6.381,6.3826,6.3828,6.3862,6.3895,6.3852,6.3857,6.3824,6.3859,6.3965,6.3808,6.3807,6.3837,6.4065,6.41,6.412,6.3935,6.3938,6.394,6.4066,0,6.3883,6.3954,6.3913,6.399,6.4017,6.3952,6.3989,6.3985,6.3966,6.3987,6.3966,6.399,6.3931,6.3934,6.3966,6.3945,6.401,6.3935,6.3966,6.3967,6.3968,6.4141,6.4177,6.4297,6.4081,6.4084,6.4086,0,6.404,6.4048,6.4128,6.4109,6.4119,6.4154,6.4162,6.4182,6.4177,6.416,6.4166,6.4124,6.4164,6.4097,6.4152,6.4102,6.4112,6.4104,6.4108,6.4108,6.4033,6.4145,6.4334,6.4351,6.411,6.4108,6.4107,0,6.4176,6.4207,6.4258,6.426,6.4239,6.4265,6.4257,6.4248,6.4258,6.4266,6.4272,6.4284,6.4291,6.4302,6.4264,6.4218,6.4325,6.4254,6.4312,6.4313,6.4336,6.4335,6.4528,6.4345,6.4344,6.4344,6.4344,0,6.4321,6.4372,6.4319,6.435,6.4406,6.4358,6.4415,6.44,6.4393,6.442,6.4365,6.4392,6.4342,6.4364,6.4336,6.4385,6.4389,6.4377,6.4368,6.4381,6.4383,6.4386,6.4377,6.4349,6.4348,6.4347,6.4346,0,6.4481,6.4447,6.4499,6.4476,6.4471,6.4513,6.4492,6.4521,6.4498,6.4534,6.454,6.4504,6.4528,6.4492,6.4512,6.4492,6.4561,6.454,6.4563,6.4556,6.4616,6.4611,6.4817,6.4842,6.4644,6.4646,6.4648,0,6.4576,6.4614,6.4594,6.4609,6.4604,6.4629,6.4639,6.4594,6.4606,6.4603,6.4632,6.4651,6.4663,6.4704,6.468,6.4694,6.4673,6.4745,6.4675,6.4687,6.4673,6.4671,6.4674,6.4759,6.4761,6.4763,6.4764,0,6.4747,6.4729,6.4745,6.4756,6.4769,6.4776,6.4778,6.4794,6.4746,6.4763,6.4786,6.4796,6.4816,6.4835,6.4844,6.4836,6.4793,6.4787,6.4801,6.4814,6.4825,6.4819,6.4601,6.4782,6.478,6.4779,6.4778,6.4777,6.4877,6.4907,6.4898,6.4918,6.4915,6.4919,6.4944,6.4924,6.4943,6.4955,6.4928,6.4958,6.4951,6.4958,6.4955,6.4978,6.4947,6.4967,6.4972,6.4978,6.4987,6.4822,6.498,6.4979,6.4979,6.4978,6.4978,0,6.5044,6.5035,6.5054,6.5059,6.5075,6.5033,6.5033,6.5049,6.5076,6.5073,6.5087,6.5114,6.5132,6.511,6.5124,6.5147,6.5127,6.5152,6.515,6.5148,6.5014,6.5,6.5168,6.5168,6.5168,6.5168,6.5168,6.5168,6.5133,6.5182,6.5162,6.5209,6.52,6.5228,6.5232,6.5235,6.5232,6.5264,6.5279,6.5265,6.5254,6.5268,6.5283,6.5276,6.5283,6.5315,6.5302,6.5177,6.5158,6.514,6.5127,6.5318,6.5318,6.5433,6.5434,6.5435]}]]